Tracking 18630 objects as of 23-May-2017
HD Live streaming from Space Station
objects crossing your sky now

OXP 1

Track OXP 1 now!
10-day predictions
OXP 1 is classified as:


NORAD ID: 22489
Int'l Code: 1993-009A
Perigee: 720.3 km
Apogee: 779.0 km
Inclination: 25.0 °
Period: 99.7 minutes
Semi major axis: 7120 km
RCS: 1.9581 m2 (large)
Launch date: February 9, 1993
Source: United States (US)
Launch site: AIR FORCE EASTERN TEST RANGE (AFETR)
Your satellite tracking list
Your tracking list is empty





NASA's NSSDC Master Catalog

Two Line Element Set (TLE):
1 22489U 93009A   17142.31364533 +.00000251 +00000-0 +18960-4 0  9995
2 22489 024.9642 108.0134 0041189 063.9567 296.5173 14.44854023281357
Source of the keplerian elements: AFSPC